IRIDIUM 169

Last updated on Fri Sep 11 2026 00:03:06 GMT+0000 (Coordinated Universal Time)

1 43926U 19002E 26253.31895403 .00000196 00000+0 57718-4 0 9994 2 43926 86.4283 349.6173 0002492 86.2274 273.9209 14.38609216402464
UTC large
Height (km)
Speed (km/s)
/
Latitude / Longitude
Inclination (degrees)
Orbital Period (minutes)
Azimuth
Elevation
Range (km)
Doppler Factor

Next 0 passes for location: London (51.5072 / 0.1276)

No passes found over London.
IRIDIUM 169